Year,Month,Day,Hour,Minute,Value (Times are PST for windspeed in km/hr)
2010,08,29,00,00,2.10
2010,08,29,00,01,6.70
2010,08,29,00,02,4.40
2010,08,29,00,03,6.80
2010,08,29,00,04,9.80
2010,08,29,00,05,9.30
2010,08,29,00,06,12.00
2010,08,29,00,07,8.50
2010,08,29,00,08,7.20
2010,08,29,00,09,5.60
2010,08,29,00,10,9.20
2010,08,29,00,11,8.50
2010,08,29,00,12,10.30
2010,08,29,00,13,4.80
2010,08,29,00,14,4.60
2010,08,29,00,15,7.50
2010,08,29,00,16,7.00
2010,08,29,00,17,5.30
2010,08,29,00,18,9.30
2010,08,29,00,19,8.60
2010,08,29,00,20,5.30
2010,08,29,00,21,8.70
2010,08,29,00,22,6.20
2010,08,29,00,23,7.40
2010,08,29,00,24,7.00
2010,08,29,00,25,7.50
2010,08,29,00,26,5.80
2010,08,29,00,27,3.50
2010,08,29,00,28,8.40
2010,08,29,00,29,5.70
2010,08,29,00,30,7.50
2010,08,29,00,31,6.10
2010,08,29,00,32,8.60
2010,08,29,00,33,7.90
2010,08,29,00,34,3.50
2010,08,29,00,35,8.00
2010,08,29,00,36,7.80
2010,08,29,00,37,3.80
2010,08,29,00,38,5.10
2010,08,29,00,39,7.80
2010,08,29,00,40,6.30
2010,08,29,00,41,7.30
2010,08,29,00,42,10.70
2010,08,29,00,43,8.30
2010,08,29,00,44,5.60
2010,08,29,00,45,7.20
2010,08,29,00,46,7.60
2010,08,29,00,47,7.20
2010,08,29,00,48,4.90
2010,08,29,00,49,9.10
2010,08,29,00,50,11.90
2010,08,29,00,51,8.60
2010,08,29,00,52,9.70
2010,08,29,00,53,10.60
2010,08,29,00,54,6.30
2010,08,29,00,55,4.10
2010,08,29,00,56,10.50
2010,08,29,00,57,5.90
2010,08,29,00,58,6.80
2010,08,29,00,59,2.30
2010,08,29,01,00,10.20
2010,08,29,01,01,6.40
2010,08,29,01,02,6.60
2010,08,29,01,03,4.70
2010,08,29,01,04,10.30
2010,08,29,01,05,6.40
2010,08,29,01,06,4.10
2010,08,29,01,07,6.60
2010,08,29,01,08,5.10
2010,08,29,01,09,4.60
2010,08,29,01,10,8.10
2010,08,29,01,11,2.10
2010,08,29,01,12,3.30
2010,08,29,01,13,4.00
2010,08,29,01,14,9.90
2010,08,29,01,15,6.00
2010,08,29,01,16,7.50
2010,08,29,01,17,5.60
2010,08,29,01,18,8.00
2010,08,29,01,19,7.50
2010,08,29,01,20,4.00
2010,08,29,01,21,8.00
2010,08,29,01,22,6.70
2010,08,29,01,23,5.60
2010,08,29,01,24,10.60
2010,08,29,01,25,5.90
2010,08,29,01,26,7.00
2010,08,29,01,27,6.60
2010,08,29,01,28,4.70
2010,08,29,01,29,4.70
2010,08,29,01,30,8.10
2010,08,29,01,31,7.80
2010,08,29,01,32,10.90
2010,08,29,01,33,7.20
2010,08,29,01,34,8.10
2010,08,29,01,35,6.10
2010,08,29,01,36,6.40
2010,08,29,01,37,2.50
2010,08,29,01,38,9.20
2010,08,29,01,39,9.30
2010,08,29,01,40,8.50
2010,08,29,01,41,4.30
2010,08,29,01,42,10.80
2010,08,29,01,43,5.50
2010,08,29,01,44,2.50
2010,08,29,01,45,4.20
2010,08,29,01,46,5.10
2010,08,29,01,47,6.80
2010,08,29,01,48,5.90
2010,08,29,01,49,5.70
2010,08,29,01,50,5.60
2010,08,29,01,51,7.90
2010,08,29,01,52,7.30
2010,08,29,01,53,5.80
2010,08,29,01,54,5.70
2010,08,29,01,55,9.20
2010,08,29,01,56,5.50
2010,08,29,01,57,5.10
2010,08,29,01,58,7.60
2010,08,29,01,59,8.00
2010,08,29,02,00,8.40
2010,08,29,02,01,8.10
2010,08,29,02,02,5.20
2010,08,29,02,03,5.50
2010,08,29,02,04,2.90
2010,08,29,02,05,5.00
2010,08,29,02,06,10.80
2010,08,29,02,07,6.60
2010,08,29,02,08,9.70
2010,08,29,02,09,7.20
2010,08,29,02,10,7.70
2010,08,29,02,11,6.00
2010,08,29,02,12,7.80
2010,08,29,02,13,3.50
2010,08,29,02,14,8.40
2010,08,29,02,15,8.60
2010,08,29,02,16,10.30
2010,08,29,02,17,5.50
2010,08,29,02,18,10.10
2010,08,29,02,19,9.30
2010,08,29,02,20,10.40
2010,08,29,02,21,7.30
2010,08,29,02,22,10.20
2010,08,29,02,23,6.50
2010,08,29,02,24,8.90
2010,08,29,02,25,8.60
2010,08,29,02,26,9.80
2010,08,29,02,27,5.10
2010,08,29,02,28,5.30
2010,08,29,02,29,6.00
2010,08,29,02,30,4.80
2010,08,29,02,31,5.00
2010,08,29,02,32,4.50
2010,08,29,02,33,9.20
2010,08,29,02,34,8.30
2010,08,29,02,35,10.70
2010,08,29,02,36,7.10
2010,08,29,02,37,7.30
2010,08,29,02,38,6.70
2010,08,29,02,39,8.00
2010,08,29,02,40,9.70
2010,08,29,02,41,6.80
2010,08,29,02,42,8.50
2010,08,29,02,43,6.40
2010,08,29,02,44,10.00
2010,08,29,02,45,7.40
2010,08,29,02,46,6.00
2010,08,29,02,47,8.80
2010,08,29,02,48,8.90
2010,08,29,02,49,7.40
2010,08,29,02,50,6.30
2010,08,29,02,51,8.50
2010,08,29,02,52,7.30
2010,08,29,02,53,5.30
2010,08,29,02,54,8.40
2010,08,29,02,55,5.00
2010,08,29,02,56,3.50
2010,08,29,02,57,5.70
2010,08,29,02,58,6.10
2010,08,29,02,59,10.60
2010,08,29,03,00,7.20
2010,08,29,03,01,7.40
2010,08,29,03,02,8.10
2010,08,29,03,03,5.50
2010,08,29,03,04,6.00
2010,08,29,03,05,8.10
2010,08,29,03,06,8.50
2010,08,29,03,07,6.30
2010,08,29,03,08,4.10
2010,08,29,03,09,10.70
2010,08,29,03,10,8.90
2010,08,29,03,11,4.40
2010,08,29,03,12,7.30
2010,08,29,03,13,4.80
2010,08,29,03,14,7.40
2010,08,29,03,15,7.40
2010,08,29,03,16,3.30
2010,08,29,03,17,5.90
2010,08,29,03,18,6.00
2010,08,29,03,19,4.10
2010,08,29,03,20,4.30
2010,08,29,03,21,1.40
2010,08,29,03,22,5.70
2010,08,29,03,23,5.00
2010,08,29,03,24,7.30
2010,08,29,03,25,6.50
2010,08,29,03,26,3.70
2010,08,29,03,27,3.60
2010,08,29,03,28,2.70
2010,08,29,03,29,7.60
2010,08,29,03,30,3.90
2010,08,29,03,31,6.40
2010,08,29,03,32,5.10
2010,08,29,03,33,6.20
2010,08,29,03,34,2.00
2010,08,29,03,35,4.70
2010,08,29,03,36,6.30
2010,08,29,03,37,3.40
2010,08,29,03,38,4.40
2010,08,29,03,39,5.50
2010,08,29,03,40,4.90
2010,08,29,03,41,1.10
2010,08,29,03,42,2.50
2010,08,29,03,43,4.40
2010,08,29,03,44,7.50
2010,08,29,03,45,2.90
2010,08,29,03,46,3.30
2010,08,29,03,47,3.90
2010,08,29,03,48,7.30
2010,08,29,03,49,8.00
2010,08,29,03,50,5.50
2010,08,29,03,51,3.10
2010,08,29,03,52,4.60
2010,08,29,03,53,2.60
2010,08,29,03,54,6.60
2010,08,29,03,55,5.20
2010,08,29,03,56,3.20
2010,08,29,03,57,5.20
2010,08,29,03,58,6.40
2010,08,29,03,59,4.60
2010,08,29,04,00,5.50
2010,08,29,04,01,4.80
2010,08,29,04,02,2.00
2010,08,29,04,03,3.60
2010,08,29,04,04,3.50
2010,08,29,04,05,2.60
2010,08,29,04,06,0.60
2010,08,29,04,07,5.30
2010,08,29,04,08,5.30
2010,08,29,04,09,3.90
2010,08,29,04,10,4.30
2010,08,29,04,11,4.30
2010,08,29,04,12,5.20
2010,08,29,04,13,3.70
2010,08,29,04,14,4.70
2010,08,29,04,15,0.60
2010,08,29,04,16,1.20
2010,08,29,04,17,2.50
2010,08,29,04,18,2.70
2010,08,29,04,19,3.50
2010,08,29,04,20,1.80
2010,08,29,04,21,3.10
2010,08,29,04,22,5.40
2010,08,29,04,23,5.00
2010,08,29,04,24,3.00
2010,08,29,04,25,3.10
2010,08,29,04,26,0.40
2010,08,29,04,27,4.60
2010,08,29,04,28,2.20
2010,08,29,04,29,1.20
2010,08,29,04,30,0.40
2010,08,29,04,31,1.40
2010,08,29,04,32,2.50
2010,08,29,04,33,1.00
2010,08,29,04,34,3.00
2010,08,29,04,35,1.60
2010,08,29,04,36,1.70
2010,08,29,04,37,3.40
2010,08,29,04,38,3.50
2010,08,29,04,39,8.10
2010,08,29,04,40,5.70
2010,08,29,04,41,3.40
2010,08,29,04,42,7.50
2010,08,29,04,43,4.30
2010,08,29,04,44,0.20
2010,08,29,04,45,1.30
2010,08,29,04,46,2.70
2010,08,29,04,47,3.30
2010,08,29,04,48,2.30
2010,08,29,04,49,3.10
2010,08,29,04,50,8.90
2010,08,29,04,51,6.40
2010,08,29,04,52,1.20
2010,08,29,04,53,1.70
2010,08,29,04,54,5.30
2010,08,29,04,55,6.20
2010,08,29,04,56,1.70
2010,08,29,04,57,6.20
2010,08,29,04,58,2.50
2010,08,29,04,59,5.40
2010,08,29,05,00,3.10
2010,08,29,05,01,7.00
2010,08,29,05,02,6.10
2010,08,29,05,03,7.20
2010,08,29,05,04,2.10
2010,08,29,05,05,5.00
2010,08,29,05,06,2.80
2010,08,29,05,07,1.00
2010,08,29,05,08,2.00
2010,08,29,05,09,4.50
2010,08,29,05,10,4.80
2010,08,29,05,11,4.40
2010,08,29,05,12,4.40
2010,08,29,05,13,1.00
2010,08,29,05,14,4.80
2010,08,29,05,15,3.00
2010,08,29,05,16,2.10
2010,08,29,05,17,2.30
2010,08,29,05,18,1.40
2010,08,29,05,19,1.40
2010,08,29,05,20,3.10
2010,08,29,05,21,2.60
2010,08,29,05,22,4.30
2010,08,29,05,23,4.40
2010,08,29,05,24,3.00
2010,08,29,05,25,0.30
2010,08,29,05,26,1.00
2010,08,29,05,27,0.00
2010,08,29,05,28,0.00
2010,08,29,05,29,1.90
2010,08,29,05,30,2.80
2010,08,29,05,31,0.10
2010,08,29,05,32,1.40
2010,08,29,05,33,1.60
2010,08,29,05,34,0.30
2010,08,29,05,35,4.20
2010,08,29,05,36,3.10
2010,08,29,05,37,1.50
2010,08,29,05,38,7.20
2010,08,29,05,39,0.50
2010,08,29,05,40,5.10
2010,08,29,05,41,2.90
2010,08,29,05,42,2.60
2010,08,29,05,43,1.10
2010,08,29,05,44,1.40
2010,08,29,05,45,0.10
2010,08,29,05,46,0.30
2010,08,29,05,47,0.90
2010,08,29,05,48,0.10
2010,08,29,05,49,0.90
2010,08,29,05,50,1.20
2010,08,29,05,51,3.00
2010,08,29,05,52,1.00
2010,08,29,05,53,1.50
2010,08,29,05,54,0.60
2010,08,29,05,55,0.30
2010,08,29,05,56,0.20
2010,08,29,05,57,0.30
2010,08,29,05,58,0.70
2010,08,29,05,59,3.10
2010,08,29,06,00,2.40
2010,08,29,06,01,2.50
2010,08,29,06,02,3.30
2010,08,29,06,03,1.20
2010,08,29,06,04,2.20
2010,08,29,06,05,2.70
2010,08,29,06,06,2.40
2010,08,29,06,07,2.30
2010,08,29,06,08,2.20
2010,08,29,06,09,2.30
2010,08,29,06,10,1.90
2010,08,29,06,11,0.50
2010,08,29,06,12,4.20
2010,08,29,06,13,2.10
2010,08,29,06,14,4.10
2010,08,29,06,15,3.40
2010,08,29,06,16,2.10
2010,08,29,06,17,2.30
2010,08,29,06,18,2.70
2010,08,29,06,19,0.30
2010,08,29,06,20,2.00
2010,08,29,06,21,0.20
2010,08,29,06,22,0.50
2010,08,29,06,23,2.30
2010,08,29,06,24,0.80
2010,08,29,06,25,0.80
2010,08,29,06,26,0.00
2010,08,29,06,27,1.50
2010,08,29,06,28,1.90
2010,08,29,06,29,0.90
2010,08,29,06,30,0.30
2010,08,29,06,31,0.60
2010,08,29,06,32,3.90
2010,08,29,06,33,2.20
2010,08,29,06,34,2.20
2010,08,29,06,35,2.70
2010,08,29,06,36,2.50
2010,08,29,06,37,2.20
2010,08,29,06,38,2.50
2010,08,29,06,39,6.00
2010,08,29,06,40,2.20
2010,08,29,06,41,5.30
2010,08,29,06,42,0.90
2010,08,29,06,43,0.70
2010,08,29,06,44,1.00
2010,08,29,06,45,1.40
2010,08,29,06,46,0.40
2010,08,29,06,47,2.20
2010,08,29,06,48,2.10
2010,08,29,06,49,2.20
2010,08,29,06,50,1.50
2010,08,29,06,51,2.60
2010,08,29,06,52,0.90
2010,08,29,06,53,0.80
2010,08,29,06,54,2.90
2010,08,29,06,55,3.00
2010,08,29,06,56,2.10
2010,08,29,06,57,2.10
2010,08,29,06,58,1.10
2010,08,29,06,59,0.50
2010,08,29,07,00,0.00
2010,08,29,07,01,0.00
2010,08,29,07,02,0.10
2010,08,29,07,03,0.00
2010,08,29,07,04,0.10
2010,08,29,07,05,0.00
2010,08,29,07,06,3.30
2010,08,29,07,07,0.90
2010,08,29,07,08,0.30
2010,08,29,07,09,0.00
2010,08,29,07,10,0.90
2010,08,29,07,11,0.10
2010,08,29,07,12,0.00
2010,08,29,07,13,0.00
2010,08,29,07,14,0.10
2010,08,29,07,15,0.20
2010,08,29,07,16,0.00
2010,08,29,07,17,0.00
2010,08,29,07,18,0.00
2010,08,29,07,19,0.00
2010,08,29,07,20,0.00
2010,08,29,07,21,0.40
2010,08,29,07,22,0.00
2010,08,29,07,23,0.00
2010,08,29,07,24,0.10
2010,08,29,07,25,0.00
2010,08,29,07,26,0.10
2010,08,29,07,27,0.10
2010,08,29,07,28,1.80
2010,08,29,07,29,0.30
2010,08,29,07,30,0.00
2010,08,29,07,31,0.00
2010,08,29,07,32,0.00
2010,08,29,07,33,0.00
2010,08,29,07,34,0.00
2010,08,29,07,35,0.00
2010,08,29,07,36,0.00
2010,08,29,07,37,0.00
2010,08,29,07,38,0.00
2010,08,29,07,39,0.00
2010,08,29,07,40,0.20
2010,08,29,07,41,0.40
2010,08,29,07,42,1.60
2010,08,29,07,43,1.00
2010,08,29,07,44,4.80
2010,08,29,07,45,2.80
2010,08,29,07,46,0.60
2010,08,29,07,47,0.20
2010,08,29,07,48,0.00
2010,08,29,07,49,0.10
2010,08,29,07,50,1.10
2010,08,29,07,51,6.40
2010,08,29,07,52,3.90
2010,08,29,07,53,5.10
2010,08,29,07,54,2.30
2010,08,29,07,55,0.90
2010,08,29,07,56,0.30
2010,08,29,07,57,2.50
2010,08,29,07,58,3.00
2010,08,29,07,59,0.40
2010,08,29,08,00,0.80
2010,08,29,08,01,3.40
2010,08,29,08,02,1.60
2010,08,29,08,03,2.50
2010,08,29,08,04,3.30
2010,08,29,08,05,5.30
2010,08,29,08,06,0.20
2010,08,29,08,07,0.00
2010,08,29,08,08,0.00
2010,08,29,08,09,0.90
2010,08,29,08,10,0.30
2010,08,29,08,11,0.70
2010,08,29,08,12,4.30
2010,08,29,08,13,3.40
2010,08,29,08,14,0.60
2010,08,29,08,15,1.00
2010,08,29,08,16,0.00
2010,08,29,08,17,0.80
2010,08,29,08,18,0.30
2010,08,29,08,19,0.30
2010,08,29,08,20,0.40
2010,08,29,08,21,0.10
2010,08,29,08,22,0.00
2010,08,29,08,23,1.00
2010,08,29,08,24,1.40
2010,08,29,08,25,0.00
2010,08,29,08,26,0.00
2010,08,29,08,27,0.80
2010,08,29,08,28,1.80
2010,08,29,08,29,0.90
2010,08,29,08,30,0.60
2010,08,29,08,31,1.40
2010,08,29,08,32,1.70
2010,08,29,08,33,2.40
2010,08,29,08,34,4.60
2010,08,29,08,35,2.00
2010,08,29,08,36,3.90
2010,08,29,08,37,1.10
2010,08,29,08,38,1.90
2010,08,29,08,39,3.60
2010,08,29,08,40,2.30
2010,08,29,08,41,1.10
2010,08,29,08,42,1.10
2010,08,29,08,43,1.10
2010,08,29,08,44,1.00
2010,08,29,08,45,0.50
2010,08,29,08,46,0.20
2010,08,29,08,47,1.10
2010,08,29,08,48,0.60
2010,08,29,08,49,0.20
2010,08,29,08,50,0.10
2010,08,29,08,51,3.80
2010,08,29,08,52,5.60
2010,08,29,08,53,0.50
2010,08,29,08,54,0.30
2010,08,29,08,55,2.10
2010,08,29,08,56,3.40
2010,08,29,08,57,0.70
2010,08,29,08,58,2.80
2010,08,29,08,59,3.10
2010,08,29,09,00,3.20
2010,08,29,09,01,1.00
2010,08,29,09,02,3.00
2010,08,29,09,03,1.50
2010,08,29,09,04,2.20
2010,08,29,09,05,0.60
2010,08,29,09,06,0.30
2010,08,29,09,07,0.30
2010,08,29,09,08,1.00
2010,08,29,09,09,4.70
2010,08,29,09,10,2.50
2010,08,29,09,11,0.70
2010,08,29,09,12,1.10
2010,08,29,09,13,0.90
2010,08,29,09,14,0.40
2010,08,29,09,15,1.60
2010,08,29,09,16,1.80
2010,08,29,09,17,0.30
2010,08,29,09,18,0.50
2010,08,29,09,19,1.50
2010,08,29,09,20,0.90
2010,08,29,09,21,5.50
2010,08,29,09,22,7.40
2010,08,29,09,23,6.60
2010,08,29,09,24,5.70
2010,08,29,09,25,2.60
2010,08,29,09,26,1.40
2010,08,29,09,27,0.30
2010,08,29,09,28,3.80
2010,08,29,09,29,0.80
2010,08,29,09,30,1.80
2010,08,29,09,31,7.30
2010,08,29,09,32,2.50
2010,08,29,09,33,2.70
2010,08,29,09,34,4.80
2010,08,29,09,35,1.90
2010,08,29,09,36,4.30
2010,08,29,09,37,4.20
2010,08,29,09,38,1.50
2010,08,29,09,39,4.30
2010,08,29,09,40,7.50
2010,08,29,09,41,7.80
2010,08,29,09,42,4.40
2010,08,29,09,43,1.10
2010,08,29,09,44,3.50
2010,08,29,09,45,3.30
2010,08,29,09,46,2.10
2010,08,29,09,47,0.80
2010,08,29,09,48,3.40
2010,08,29,09,49,2.00
2010,08,29,09,50,1.80
2010,08,29,09,51,7.30
2010,08,29,09,52,9.80
2010,08,29,09,53,6.60
2010,08,29,09,54,8.70
2010,08,29,09,55,7.50
2010,08,29,09,56,2.80
2010,08,29,09,57,7.10
2010,08,29,09,58,3.90
2010,08,29,09,59,0.90
2010,08,29,10,00,0.80
2010,08,29,10,01,3.00
2010,08,29,10,02,7.80
2010,08,29,10,03,6.90
2010,08,29,10,04,3.30
2010,08,29,10,05,5.40
2010,08,29,10,06,8.40
2010,08,29,10,07,4.90
2010,08,29,10,08,5.40
2010,08,29,10,09,4.40
2010,08,29,10,10,3.90
2010,08,29,10,11,6.50
2010,08,29,10,12,10.60
2010,08,29,10,13,4.40
2010,08,29,10,14,1.80
2010,08,29,10,15,2.30
2010,08,29,10,16,5.80
2010,08,29,10,17,5.80
2010,08,29,10,18,6.40
2010,08,29,10,19,1.50
2010,08,29,10,20,3.50
2010,08,29,10,21,6.60
2010,08,29,10,22,6.50
2010,08,29,10,23,8.00
2010,08,29,10,24,10.10
2010,08,29,10,25,3.90
2010,08,29,10,26,4.70
2010,08,29,10,27,5.80
2010,08,29,10,28,5.00
2010,08,29,10,29,5.30
2010,08,29,10,30,1.40
2010,08,29,10,31,1.30
2010,08,29,10,32,4.50
2010,08,29,10,33,3.60
2010,08,29,10,34,1.40
2010,08,29,10,35,2.00
2010,08,29,10,36,1.90
2010,08,29,10,37,1.80
2010,08,29,10,38,1.90
2010,08,29,10,39,3.20
2010,08,29,10,40,2.50
2010,08,29,10,41,4.30
2010,08,29,10,42,2.30
2010,08,29,10,43,1.60
2010,08,29,10,44,2.50
2010,08,29,10,45,2.50
2010,08,29,10,46,3.60
2010,08,29,10,47,2.90
2010,08,29,10,48,2.00
2010,08,29,10,49,2.30
2010,08,29,10,50,2.90
2010,08,29,10,51,3.40
2010,08,29,10,52,2.40
2010,08,29,10,53,3.10
2010,08,29,10,54,3.30
2010,08,29,10,55,2.20
2010,08,29,10,56,2.10
2010,08,29,10,57,2.50
2010,08,29,10,58,2.70
2010,08,29,10,59,2.70
2010,08,29,11,00,2.50
2010,08,29,11,01,2.50
2010,08,29,11,02,3.10
2010,08,29,11,03,1.90
2010,08,29,11,04,2.90
2010,08,29,11,05,3.10
2010,08,29,11,06,2.60
2010,08,29,11,07,1.70
2010,08,29,11,08,1.40
2010,08,29,11,09,1.90
2010,08,29,11,10,0.90
2010,08,29,11,11,2.60
2010,08,29,11,12,3.40
2010,08,29,11,13,2.70
2010,08,29,11,14,3.10
2010,08,29,11,15,2.40
2010,08,29,11,16,1.60
2010,08,29,11,17,3.40
2010,08,29,11,18,2.40
2010,08,29,11,19,2.50
2010,08,29,11,20,2.90
2010,08,29,11,21,1.60
2010,08,29,11,22,3.20
2010,08,29,11,23,2.20
2010,08,29,11,24,4.70
2010,08,29,11,25,1.60
2010,08,29,11,26,1.70
2010,08,29,11,27,3.50
2010,08,29,11,28,2.00
2010,08,29,11,29,1.90
2010,08,29,11,30,1.60
2010,08,29,11,31,2.80
2010,08,29,11,32,2.20
2010,08,29,11,33,1.50
2010,08,29,11,34,1.40
2010,08,29,11,35,3.00
2010,08,29,11,36,2.40
2010,08,29,11,37,3.40
2010,08,29,11,38,2.70
2010,08,29,11,39,3.70
2010,08,29,11,40,1.50
2010,08,29,11,41,2.30
2010,08,29,11,42,2.20
2010,08,29,11,43,1.60
2010,08,29,11,44,1.80
2010,08,29,11,45,1.20
2010,08,29,11,46,1.50
2010,08,29,11,47,2.80
2010,08,29,11,48,1.90
2010,08,29,11,49,2.40
2010,08,29,11,50,2.80
2010,08,29,11,51,3.80
2010,08,29,11,52,2.40
2010,08,29,11,53,2.40
2010,08,29,11,54,2.80
2010,08,29,11,55,2.90
2010,08,29,11,56,2.90
2010,08,29,11,57,2.80
2010,08,29,11,58,3.30
2010,08,29,11,59,4.30
2010,08,29,12,00,3.20
2010,08,29,12,01,0.80
2010,08,29,12,02,1.80
2010,08,29,12,03,2.50
2010,08,29,12,04,3.00
2010,08,29,12,05,2.90
2010,08,29,12,06,2.70
2010,08,29,12,07,1.50
2010,08,29,12,08,1.00
2010,08,29,12,09,1.50
2010,08,29,12,10,0.30
2010,08,29,12,11,1.60
2010,08,29,12,12,3.30
2010,08,29,12,13,2.50
2010,08,29,12,14,3.10
2010,08,29,12,15,3.90
2010,08,29,12,16,1.20
2010,08,29,12,17,1.60
2010,08,29,12,18,0.60
2010,08,29,12,19,2.50
2010,08,29,12,20,1.00
2010,08,29,12,21,1.10
2010,08,29,12,22,5.00
2010,08,29,12,23,5.10
2010,08,29,12,24,3.10
2010,08,29,12,25,1.80
2010,08,29,12,26,2.20
2010,08,29,12,27,0.70
2010,08,29,12,28,2.00
2010,08,29,12,29,3.40
2010,08,29,12,30,2.90
2010,08,29,12,31,4.40
2010,08,29,12,32,2.00
2010,08,29,12,33,2.20
2010,08,29,12,34,1.50
2010,08,29,12,35,1.70
2010,08,29,12,36,3.10
2010,08,29,12,37,4.80
2010,08,29,12,38,4.40
2010,08,29,12,39,5.90
2010,08,29,12,40,2.80
2010,08,29,12,41,1.50
2010,08,29,12,42,3.30
2010,08,29,12,43,2.40
2010,08,29,12,44,6.60
2010,08,29,12,45,2.80
2010,08,29,12,46,1.40
2010,08,29,12,47,3.10
2010,08,29,12,48,3.20
2010,08,29,12,49,3.00
2010,08,29,12,50,1.20
2010,08,29,12,51,1.90
2010,08,29,12,52,4.90
2010,08,29,12,53,4.30
2010,08,29,12,54,2.70
2010,08,29,12,55,1.40
2010,08,29,12,56,3.90
2010,08,29,12,57,2.00
2010,08,29,12,58,7.10
2010,08,29,12,59,3.10
2010,08,29,13,00,4.50
2010,08,29,13,01,3.50
2010,08,29,13,02,4.50
2010,08,29,13,03,2.80
2010,08,29,13,04,4.70
2010,08,29,13,05,2.70
2010,08,29,13,06,3.20
2010,08,29,13,07,3.00
2010,08,29,13,08,2.80
2010,08,29,13,09,1.30
2010,08,29,13,10,4.50
2010,08,29,13,11,4.30
2010,08,29,13,12,4.30
2010,08,29,13,13,4.40
2010,08,29,13,14,1.80
2010,08,29,13,15,1.90
2010,08,29,13,16,3.20
2010,08,29,13,17,1.00
2010,08,29,13,18,2.00
2010,08,29,13,19,1.70
2010,08,29,13,20,3.40
2010,08,29,13,21,2.50
2010,08,29,13,22,1.90
2010,08,29,13,23,3.70
2010,08,29,13,24,1.20
2010,08,29,13,25,2.20
2010,08,29,13,26,1.70
2010,08,29,13,27,2.90
2010,08,29,13,28,2.50
2010,08,29,13,29,1.00
2010,08,29,13,30,3.70
2010,08,29,13,31,5.70
2010,08,29,13,32,2.40
2010,08,29,13,33,4.20
2010,08,29,13,34,2.80
2010,08,29,13,35,2.20
2010,08,29,13,36,1.80
2010,08,29,13,37,5.50
2010,08,29,13,38,7.40
2010,08,29,13,39,1.80
2010,08,29,13,40,4.70
2010,08,29,13,41,3.10
2010,08,29,13,42,3.00
2010,08,29,13,43,1.20
2010,08,29,13,44,2.40
2010,08,29,13,45,1.70
2010,08,29,13,46,2.50
2010,08,29,13,47,3.50
2010,08,29,13,48,3.80
2010,08,29,13,49,2.40
2010,08,29,13,50,2.60
2010,08,29,13,51,5.40
2010,08,29,13,52,2.80
2010,08,29,13,53,1.40
2010,08,29,13,54,3.10
2010,08,29,13,55,4.10
2010,08,29,13,56,3.00
2010,08,29,13,57,1.20
2010,08,29,13,58,2.80
2010,08,29,13,59,0.50
2010,08,29,14,00,1.70
2010,08,29,14,01,3.10
2010,08,29,14,02,5.00
2010,08,29,14,03,5.90
2010,08,29,14,04,0.50
2010,08,29,14,05,2.50
2010,08,29,14,06,5.20
2010,08,29,14,07,1.40
2010,08,29,14,08,2.50
2010,08,29,14,09,1.00
2010,08,29,14,10,1.80
2010,08,29,14,11,0.40
2010,08,29,14,12,4.40
2010,08,29,14,13,0.90
2010,08,29,14,14,5.10
2010,08,29,14,15,2.40
2010,08,29,14,16,2.10
2010,08,29,14,17,0.90
2010,08,29,14,18,3.00
2010,08,29,14,19,1.00
2010,08,29,14,20,4.00
2010,08,29,14,21,3.40
2010,08,29,14,22,1.60
2010,08,29,14,23,4.50
2010,08,29,14,24,6.10
2010,08,29,14,25,3.50
2010,08,29,14,26,2.20
2010,08,29,14,27,5.60
2010,08,29,14,28,1.80
2010,08,29,14,29,4.10
2010,08,29,14,30,2.90
2010,08,29,14,31,2.80
2010,08,29,14,32,2.20
2010,08,29,14,33,1.60
2010,08,29,14,34,4.50
2010,08,29,14,35,3.10
2010,08,29,14,36,2.30
2010,08,29,14,37,1.00
2010,08,29,14,38,3.70
2010,08,29,14,39,4.80
2010,08,29,14,40,1.30
2010,08,29,14,41,3.90
2010,08,29,14,42,1.80
2010,08,29,14,43,2.60
2010,08,29,14,44,2.50
2010,08,29,14,45,1.40
2010,08,29,14,46,1.40
2010,08,29,14,47,2.30
2010,08,29,14,48,3.50
2010,08,29,14,49,2.40
2010,08,29,14,50,3.90
2010,08,29,14,51,3.00
2010,08,29,14,52,5.40
2010,08,29,14,53,3.90
2010,08,29,14,54,2.80
2010,08,29,14,55,5.20
2010,08,29,14,56,3.60
2010,08,29,14,57,6.50
2010,08,29,14,58,4.40
2010,08,29,14,59,3.00
2010,08,29,15,00,3.30
2010,08,29,15,01,5.50
2010,08,29,15,02,4.60
2010,08,29,15,03,1.90
2010,08,29,15,04,4.20
2010,08,29,15,05,8.20
2010,08,29,15,06,6.90
2010,08,29,15,07,7.50
2010,08,29,15,08,4.80
2010,08,29,15,09,6.30
2010,08,29,15,10,6.60
2010,08,29,15,11,6.00
2010,08,29,15,12,6.30
2010,08,29,15,13,4.20
2010,08,29,15,14,9.40
2010,08,29,15,15,3.60
2010,08,29,15,16,3.60
2010,08,29,15,17,1.40
2010,08,29,15,18,3.00
2010,08,29,15,19,2.20
2010,08,29,15,20,1.40
2010,08,29,15,21,6.10
2010,08,29,15,22,2.50
2010,08,29,15,23,4.70
2010,08,29,15,24,4.00
2010,08,29,15,25,7.30
2010,08,29,15,26,4.20
2010,08,29,15,27,4.00
2010,08,29,15,28,3.80
2010,08,29,15,29,1.00
2010,08,29,15,30,1.20
2010,08,29,15,31,2.50
2010,08,29,15,32,2.80
2010,08,29,15,33,0.50
2010,08,29,15,34,2.30
2010,08,29,15,35,4.00
2010,08,29,15,36,1.70
2010,08,29,15,37,1.80
2010,08,29,15,38,5.80
2010,08,29,15,39,3.50
2010,08,29,15,40,1.90
2010,08,29,15,41,1.20
2010,08,29,15,42,3.10
2010,08,29,15,43,3.90
2010,08,29,15,44,4.30
2010,08,29,15,45,4.20
2010,08,29,15,46,3.00
2010,08,29,15,47,4.70
2010,08,29,15,48,4.60
2010,08,29,15,49,4.70
2010,08,29,15,50,2.70
2010,08,29,15,51,4.50
2010,08,29,15,52,4.90
2010,08,29,15,53,2.90
2010,08,29,15,54,2.80
2010,08,29,15,55,5.20
2010,08,29,15,56,3.70
2010,08,29,15,57,5.60
2010,08,29,15,58,5.20
2010,08,29,15,59,3.00
2010,08,29,16,00,5.80
2010,08,29,16,01,6.30
2010,08,29,16,02,8.30
2010,08,29,16,03,6.00
2010,08,29,16,04,5.90
2010,08,29,16,05,1.80
2010,08,29,16,06,2.20
2010,08,29,16,07,3.00
2010,08,29,16,08,3.70
2010,08,29,16,09,7.80
2010,08,29,16,10,4.20
2010,08,29,16,11,3.60
2010,08,29,16,12,3.90
2010,08,29,16,13,4.80
2010,08,29,16,14,5.10
2010,08,29,16,15,2.70
2010,08,29,16,16,4.10
2010,08,29,16,17,2.80
2010,08,29,16,18,4.00
2010,08,29,16,19,5.60
2010,08,29,16,20,2.50
2010,08,29,16,21,4.50
2010,08,29,16,22,3.30
2010,08,29,16,23,4.80
2010,08,29,16,24,7.60
2010,08,29,16,25,3.20
2010,08,29,16,26,4.20
2010,08,29,16,27,8.00
2010,08,29,16,28,8.60
2010,08,29,16,29,3.80
2010,08,29,16,30,6.20
2010,08,29,16,31,8.00
2010,08,29,16,32,4.30
2010,08,29,16,33,5.20
2010,08,29,16,34,9.60
2010,08,29,16,35,5.60
2010,08,29,16,36,9.70
2010,08,29,16,37,10.90
2010,08,29,16,38,7.90
2010,08,29,16,39,13.00
2010,08,29,16,40,9.00
2010,08,29,16,41,8.00
2010,08,29,16,42,5.10
2010,08,29,16,43,2.50
2010,08,29,16,44,5.20
2010,08,29,16,45,4.20
2010,08,29,16,46,6.30
2010,08,29,16,47,3.40
2010,08,29,16,48,6.90
2010,08,29,16,49,5.90
2010,08,29,16,50,10.50
2010,08,29,16,51,7.70
2010,08,29,16,52,5.80
2010,08,29,16,53,4.40
2010,08,29,16,54,5.40
2010,08,29,16,55,7.30
2010,08,29,16,56,3.00
2010,08,29,16,57,6.80
2010,08,29,16,58,1.80
2010,08,29,16,59,1.20
2010,08,29,17,00,5.80
2010,08,29,17,01,6.10
2010,08,29,17,02,3.80
2010,08,29,17,03,5.90
2010,08,29,17,04,5.70
2010,08,29,17,05,4.10
2010,08,29,17,06,6.80
2010,08,29,17,07,4.10
2010,08,29,17,08,3.40
2010,08,29,17,09,7.00
2010,08,29,17,10,3.10
2010,08,29,17,11,2.60
2010,08,29,17,12,4.50
2010,08,29,17,13,1.40
2010,08,29,17,14,4.70
2010,08,29,17,15,3.10
2010,08,29,17,16,4.40
2010,08,29,17,17,4.30
2010,08,29,17,18,1.80
2010,08,29,17,19,2.20
2010,08,29,17,20,3.30
2010,08,29,17,21,3.30
2010,08,29,17,22,6.40
2010,08,29,17,23,3.70
2010,08,29,17,24,5.50
2010,08,29,17,25,5.10
2010,08,29,17,26,1.10
2010,08,29,17,27,2.10
2010,08,29,17,28,1.30
2010,08,29,17,29,3.10
2010,08,29,17,30,5.00
2010,08,29,17,31,2.00
2010,08,29,17,32,2.00
2010,08,29,17,33,0.90
2010,08,29,17,34,4.80
2010,08,29,17,35,2.30
2010,08,29,17,36,0.70
2010,08,29,17,37,2.10
2010,08,29,17,38,5.20
2010,08,29,17,39,5.90
2010,08,29,17,40,4.10
2010,08,29,17,41,3.10
2010,08,29,17,42,3.60
2010,08,29,17,43,4.80
2010,08,29,17,44,2.70
2010,08,29,17,45,4.70
2010,08,29,17,46,1.30
2010,08,29,17,47,0.80
2010,08,29,17,48,1.00
2010,08,29,17,49,1.40
2010,08,29,17,50,5.30
2010,08,29,17,51,3.50
2010,08,29,17,52,3.50
2010,08,29,17,53,0.30
2010,08,29,17,54,0.30
2010,08,29,17,55,0.60
2010,08,29,17,56,0.90
2010,08,29,17,57,1.40
2010,08,29,17,58,3.30
2010,08,29,17,59,3.00
2010,08,29,18,00,2.50
2010,08,29,18,01,5.60
2010,08,29,18,02,2.00
2010,08,29,18,03,1.30
2010,08,29,18,04,3.90
2010,08,29,18,05,0.50